TimeEDT,TemperatureF,Dew PointF,Humidity,Sea Level PressureIn,VisibilityMPH,Wind Direction,Wind SpeedMPH,Gust SpeedMPH,PrecipitationIn,Events,Conditions,WindDirDegrees,DateUTC
12:53 AM,64.9,62.1,90,30.06,10.0,Calm,Calm,-,N/A,,Mostly Cloudy,0,2013-07-03 04:53:00
1:53 AM,64.9,62.1,90,30.05,9.0,Calm,Calm,-,N/A,,Clear,0,2013-07-03 05:53:00
2:53 AM,64.9,62.1,90,30.04,10.0,ESE,3.5,-,N/A,,Mostly Cloudy,110,2013-07-03 06:53:00
3:53 AM,64.9,62.1,90,30.02,9.0,Calm,Calm,-,0.00,,Overcast,0,2013-07-03 07:53:00
4:30 AM,64.4,62.6,94,30.03,8.0,Calm,Calm,-,N/A,,Mostly Cloudy,0,2013-07-03 08:30:00
4:39 AM,64.4,62.6,94,30.03,8.0,Variable,3.5,-,N/A,,Overcast,0,2013-07-03 08:39:00
4:53 AM,64.9,62.1,90,30.02,8.0,Calm,Calm,-,N/A,,Mostly Cloudy,0,2013-07-03 08:53:00
5:10 AM,64.4,62.6,94,30.04,8.0,Calm,Calm,-,N/A,,Scattered Clouds,0,2013-07-03 09:10:00
5:33 AM,64.4,62.6,94,30.04,7.0,Calm,Calm,-,N/A,,Mostly Cloudy,0,2013-07-03 09:33:00
5:53 AM,64.9,62.1,90,30.04,8.0,Variable,3.5,-,N/A,,Overcast,0,2013-07-03 09:53:00
6:53 AM,66.0,63.0,90,30.05,4.0,Variable,4.6,-,N/A,,Overcast,0,2013-07-03 10:53:00
7:25 AM,66.2,62.6,88,30.06,3.0,Calm,Calm,-,N/A,,Overcast,0,2013-07-03 11:25:00
7:53 AM,66.9,64.0,90,30.06,3.0,SSE,5.8,-,N/A,,Overcast,150,2013-07-03 11:53:00
8:53 AM,68.0,64.0,87,30.08,4.0,South,4.6,-,N/A,,Overcast,180,2013-07-03 12:53:00
9:53 AM,69.1,63.0,81,30.09,5.0,South,6.9,-,N/A,,Haze,170,2013-07-03 13:53:00
10:53 AM,71.1,64.0,78,30.09,10.0,Variable,5.8,-,N/A,,Overcast,0,2013-07-03 14:53:00
11:53 AM,73.9,64.0,71,30.10,10.0,South,6.9,-,N/A,,Mostly Cloudy,170,2013-07-03 15:53:00
12:53 PM,77.0,63.0,62,30.09,10.0,South,8.1,-,N/A,,Mostly Cloudy,190,2013-07-03 16:53:00
1:53 PM,79.0,63.0,58,30.07,10.0,South,11.5,18.4,N/A,,Scattered Clouds,190,2013-07-03 17:53:00
2:53 PM,80.1,63.0,56,30.06,10.0,South,12.7,-,N/A,,Scattered Clouds,180,2013-07-03 18:53:00
3:53 PM,81.0,63.0,54,30.05,10.0,South,15.0,20.7,N/A,,Mostly Cloudy,190,2013-07-03 19:53:00
4:53 PM,81.0,62.1,52,30.04,10.0,South,16.1,24.2,N/A,,Scattered Clouds,180,2013-07-03 20:53:00
5:53 PM,80.1,61.0,52,30.04,10.0,South,12.7,-,N/A,,Scattered Clouds,190,2013-07-03 21:53:00
6:53 PM,79.0,61.0,54,30.04,10.0,South,13.8,-,N/A,,Partly Cloudy,190,2013-07-03 22:53:00
7:53 PM,77.0,60.1,56,30.04,10.0,SSW,9.2,-,N/A,,Partly Cloudy,200,2013-07-03 23:53:00
8:53 PM,73.9,61.0,64,30.05,10.0,SW,4.6,-,N/A,,Clear,220,2013-07-04 00:53:00
9:53 PM,71.1,61.0,70,30.07,10.0,SW,5.8,-,N/A,,Partly Cloudy,230,2013-07-04 01:53:00
10:53 PM,70.0,62.1,76,30.08,10.0,Calm,Calm,-,N/A,,Scattered Clouds,0,2013-07-04 02:53:00
11:53 PM,66.9,63.0,87,30.09,10.0,Calm,Calm,-,N/A,,Clear,0,2013-07-04 03:53:00